Nebraska City, NE

9:55 PM CDT on July 28, 2016 (GMT -0500)
Nebraska City Municipal

Weather History for KAFK - February, 2014

Change the Weather History Date:

Saturday, February 15, 2014

  Actual Average (KSDA) Record (KSDA)
Temperature  
Mean Temperature 34 °F -  
Max Temperature 48 °F 36 °F 69 °F (1967)
Min Temperature 19 °F 18 °F -8 °F (1958)
Degree Days  
Heating Degree Days 32    
Moisture  
Dew Point 24 °F    
Average Humidity 71    
Maximum Humidity 88    
Minimum Humidity 41    
Precipitation  
Precipitation 0.00 in - - ()
Sea Level Pressure  
Sea Level Pressure 29.94 in    
Wind  
Wind Speed 10 mph (SSW)    
Max Wind Speed 23 mph    
Max Gust Speed 30 mph    
Visibility 10 miles    
Events      
Averages and records for this station are not official NWS values.
T = Trace of Precipitation, MM = Missing Value Source: NWS Daily Summary

Daily Weather History Graph

Daily Weather History Graph

Search for Another Location

Airport or City:

Trip Planner

Search our weather history database for the weather conditions in past years. The results will help you decide how hot, cold, wet, or windy it might be!

Date:

Astronomy

Feb. 15, 2014 Rise Set
Actual Time 7:17 AM CST 5:58 PM CST
Civil Twilight 6:49 AM CST 6:26 PM CST
Nautical Twilight 6:17 AM CST 6:58 PM CST
Astronomical Twilight 5:45 AM CST 7:30 PM CST
Moon 7:00 PM CST (2/15) 7:16 AM CST (2/15)
Length of Visible Light 11h 37m
Length of Day
10h 41m
Waxing Gibbous, 99% of the Moon is Illuminated
Feb 15
Waxing Gibbous
Feb 22
Last Quarter
Mar 1
New
Mar 8
First Quarter
Mar 16
Full

Hourly Weather History & Observations

Time (CST) Temp. Windchill Dew Point Humidity Pressure Visibility Wind Dir Wind Speed Gust Speed Precip Events Conditions
12:15 AM 19.4 °F 12.8 °F 15.1 °F 83% 30.05 in 10.0 mi South 4.6 mph - N/A   Clear
12:35 AM 19.4 °F 12.8 °F 14.9 °F 83% 30.05 in 10.0 mi South 4.6 mph - N/A   Clear
12:55 AM 19.4 °F 14.3 °F 14.9 °F 83% 30.06 in 10.0 mi South 3.5 mph - N/A   Clear
1:15 AM 19.8 °F 14.7 °F 14.5 °F 80% 30.06 in 10.0 mi South 3.5 mph - N/A   Clear
1:35 AM 20.1 °F 15.2 °F 14.9 °F 80% 30.05 in 10.0 mi SSE 3.5 mph - N/A   Clear
1:55 AM 19.4 °F 11.5 °F 14.7 °F 82% 30.06 in 10.0 mi South 5.8 mph - N/A   Clear
2:15 AM 20.3 °F 12.5 °F 15.4 °F 81% 30.04 in 10.0 mi SSE 5.8 mph - N/A   Clear
2:35 AM 19.9 °F 12.1 °F 15.3 °F 82% 30.04 in 10.0 mi South 5.8 mph - N/A   Clear
2:55 AM 20.7 °F 11.9 °F 16.2 °F 83% 30.03 in 10.0 mi South 6.9 mph - N/A   Clear
3:15 AM 21.2 °F 11.7 °F 17.1 °F 84% 30.02 in 10.0 mi South 8.1 mph - N/A   Clear
3:35 AM 21.9 °F 13.4 °F 17.1 °F 82% 30.00 in 10.0 mi SSE 6.9 mph - N/A   Scattered Clouds
3:55 AM 22.1 °F 12.8 °F 16.3 °F 79% 29.99 in 10.0 mi SSE 8.1 mph - N/A   Mostly Cloudy
4:15 AM 22.5 °F 11.7 °F 15.8 °F 76% 29.99 in 10.0 mi South 10.4 mph - N/A   Scattered Clouds
4:35 AM 22.6 °F 11.3 °F 16.2 °F 76% 29.98 in 10.0 mi South 11.5 mph - N/A   Mostly Cloudy
4:55 AM 22.8 °F 11.5 °F 16.5 °F 77% 29.98 in 10.0 mi South 11.5 mph - N/A   Overcast
5:15 AM 22.8 °F 11.5 °F 16.7 °F 77% 29.97 in 10.0 mi South 11.5 mph - N/A   Overcast
5:35 AM 23.0 °F 12.4 °F 17.2 °F 79% 29.96 in 10.0 mi South 10.4 mph - N/A   Overcast
5:55 AM 23.7 °F 12.1 °F 17.6 °F 77% 29.96 in 10.0 mi South 12.7 mph - N/A   Overcast
6:15 AM 23.5 °F 10.8 °F 18.0 °F 79% 29.94 in 10.0 mi South 15.0 mph - N/A   Overcast
6:35 AM 23.5 °F 11.3 °F 18.1 °F 80% 29.93 in 10.0 mi South 13.8 mph - N/A   Overcast
6:55 AM 23.9 °F 11.7 °F 18.3 °F 79% 29.93 in 10.0 mi South 13.8 mph - N/A   Overcast
7:15 AM 23.9 °F 11.7 °F 18.3 °F 79% 29.92 in 10.0 mi South 13.8 mph 19.6 mph N/A   Overcast
7:35 AM 23.9 °F 12.9 °F 18.5 °F 80% 29.92 in 10.0 mi South 11.5 mph - N/A   Overcast
7:55 AM 23.9 °F 11.2 °F 19.0 °F 82% 29.91 in 7.0 mi South 15.0 mph - N/A   Overcast
8:15 AM 24.4 °F 12.4 °F 19.4 °F 81% 29.90 in 10.0 mi South 13.8 mph 20.7 mph N/A   Overcast
8:35 AM 24.8 °F 11.9 °F 19.4 °F 80% 29.89 in 7.0 mi South 16.1 mph - N/A   Overcast
8:55 AM 25.3 °F 13.1 °F 19.4 °F 78% 29.89 in 10.0 mi South 15.0 mph - N/A   Overcast
9:15 AM 25.5 °F 15.5 °F 19.4 °F 78% 29.89 in 7.0 mi SSE 10.4 mph - N/A   Overcast
9:35 AM 26.1 °F 14.5 °F 19.4 °F 76% 29.90 in 7.0 mi SSE 13.8 mph 19.6 mph N/A   Overcast
9:55 AM 26.6 °F 17.5 °F 19.9 °F 76% 29.92 in 10.0 mi South 9.2 mph 17.3 mph N/A   Overcast
10:15 AM 26.8 °F 18.5 °F 20.1 °F 76% 29.94 in 10.0 mi SSW 8.1 mph - N/A   Overcast
10:35 AM 27.1 °F 19.7 °F 20.3 °F 75% 29.93 in 10.0 mi South 6.9 mph - N/A   Overcast
10:55 AM 27.5 °F 17.4 °F 21.0 °F 77% 29.90 in 7.0 mi South 11.5 mph - N/A   Overcast
11:15 AM 28.4 °F 18.5 °F 21.4 °F 75% 29.89 in 10.0 mi South 11.5 mph - N/A   Overcast
11:35 AM 29.3 °F 18.2 °F 22.1 °F 75% 29.87 in 10.0 mi South 15.0 mph - N/A   Overcast
11:55 AM 31.5 °F 19.8 °F 23.7 °F 73% 29.85 in 10.0 mi South 18.4 mph - N/A   Overcast
12:15 PM 34.0 °F 23.4 °F 24.6 °F 69% 29.86 in 10.0 mi SSW 17.3 mph - N/A   Overcast
12:35 PM 35.1 °F 26.4 °F 25.5 °F 68% 29.86 in 10.0 mi SSW 12.7 mph - N/A   Overcast
12:55 PM 37.0 °F 27.7 °F 26.4 °F 65% 29.85 in 10.0 mi SW 16.1 mph - N/A   Mostly Cloudy
1:15 PM 38.5 °F 30.3 °F 27.1 °F 64% 29.83 in 10.0 mi SW 13.8 mph - N/A   Scattered Clouds
1:35 PM 41.0 °F 32.5 °F 28.4 °F 61% 29.83 in 10.0 mi WSW 17.3 mph - N/A   Scattered Clouds
1:55 PM 41.7 °F 34.8 °F 28.8 °F 60% 29.82 in 10.0 mi WSW 12.7 mph - N/A   Clear
2:15 PM 43.0 °F 35.4 °F 29.8 °F 60% 29.83 in 10.0 mi WSW 16.1 mph 19.6 mph N/A   Clear
2:35 PM 43.5 °F 36.1 °F 30.2 °F 59% 29.83 in 10.0 mi WSW 16.1 mph - N/A   Clear
2:55 PM 43.7 °F 36.6 °F 30.6 °F 60% 29.82 in 10.0 mi WSW 15.0 mph - N/A   Clear
3:15 PM 44.1 °F 37.1 °F 30.9 °F 60% 29.82 in 10.0 mi SW 15.0 mph 18.4 mph N/A   Clear
3:35 PM 45.0 °F 37.9 °F 31.3 °F 59% 29.82 in 10.0 mi SW 16.1 mph - N/A   Clear
3:55 PM 45.7 °F 39.1 °F 31.8 °F 58% 29.81 in 10.0 mi SW 15.0 mph - N/A   Clear
4:15 PM 46.2 °F 40.1 °F 32.0 °F 58% 29.81 in 10.0 mi SW 13.8 mph - N/A   Clear
4:35 PM 46.4 °F 40.7 °F 32.0 °F 57% 29.82 in 10.0 mi SW 12.7 mph - N/A   Clear
4:55 PM 46.0 °F 39.6 °F 32.2 °F 58% 29.83 in 10.0 mi SW 15.0 mph - N/A   Clear
5:15 PM 45.5 °F 39.6 °F 32.4 °F 60% 29.84 in 10.0 mi SW 12.7 mph - N/A   Clear
5:35 PM 44.4 °F 38.6 °F 32.4 °F 63% 29.85 in 10.0 mi SW 11.5 mph - N/A   Clear
5:55 PM 42.8 °F 39.3 °F 32.0 °F 66% 29.87 in 10.0 mi West 5.8 mph - N/A   Clear
6:15 PM 48.4 °F - 25.3 °F 41% 29.88 in 10.0 mi NNW 23.0 mph 27.6 mph N/A   Clear
6:35 PM 48.7 °F - 28.0 °F 45% 29.90 in 10.0 mi North 20.7 mph 28.8 mph N/A   Clear
6:55 PM 47.3 °F - 29.1 °F 49% 29.92 in 10.0 mi North 19.6 mph 29.9 mph N/A   Clear
7:15 PM 45.5 °F 38.9 °F 28.4 °F 51% 29.94 in 10.0 mi North 15.0 mph - N/A   Clear
7:35 PM 44.6 °F 37.2 °F 28.0 °F 52% 29.95 in 10.0 mi North 17.3 mph 23.0 mph N/A   Clear
7:55 PM 43.7 °F 36.6 °F 28.4 °F 55% 29.96 in 10.0 mi North 15.0 mph - N/A   Clear
8:15 PM 42.1 °F 34.9 °F 28.4 °F 58% 29.97 in 10.0 mi North 13.8 mph - N/A   Clear
8:35 PM 41.9 °F 34.6 °F 29.1 °F 61% 29.99 in 10.0 mi North 13.8 mph - N/A   Clear
8:55 PM 40.5 °F 34.1 °F 29.3 °F 64% 29.99 in 10.0 mi North 10.4 mph - N/A   Clear
9:15 PM 38.8 °F 32.1 °F 29.3 °F 69% 30.00 in 10.0 mi NNW 10.4 mph - N/A   Clear
9:35 PM 38.7 °F 30.5 °F 29.8 °F 71% 30.00 in 10.0 mi North 13.8 mph 18.4 mph N/A   Clear
9:55 PM 38.1 °F 29.8 °F 30.0 °F 73% 30.01 in 10.0 mi North 13.8 mph - N/A   Clear
10:15 PM 35.6 °F 27.1 °F 29.3 °F 78% 30.03 in 10.0 mi NNE 12.7 mph - N/A   Clear
10:35 PM 34.2 °F 30.0 °F 29.5 °F 83% 30.04 in 10.0 mi NW 4.6 mph - N/A   Clear
10:55 PM 34.3 °F 29.2 °F 29.7 °F 83% 30.05 in 10.0 mi NNW 5.8 mph - N/A   Clear
11:15 PM 32.4 °F 26.9 °F 28.6 °F 86% 30.06 in 10.0 mi NNW 5.8 mph - N/A   Clear
11:35 PM 32.4 °F 25.3 °F 29.3 °F 88% 30.07 in 10.0 mi North 8.1 mph - N/A   Mostly Cloudy
11:55 PM 32.0 °F 26.4 °F 28.2 °F 86% 30.07 in 10.0 mi NW 5.8 mph - N/A   Scattered Clouds